Hourly Weather Bolshoe Goltino

Today, 31 July, Saturday

Time Temperature Precipitation Wind Pressure Humidity
00:00 +15°C° 0 mm 2 mps 731 mmHg 90%
01:00 +15°C° 0 mm 2 mps 730 mmHg 89%
02:00 +15°C° 0 mm 2 mps 730 mmHg 88%
03:00 +14°C° 0 mm 3 mps 730 mmHg 87%
04:00 +14°C° 0 mm 3 mps 730 mmHg 86%
05:00 +13°C° 0 mm 3 mps 730 mmHg 85%
06:00 +15°C° 0 mm 4 mps 730 mmHg 76%
07:00 +17°C° 0 mm 5 mps 730 mmHg 67%
08:00 +19°C° 0 mm 5 mps 730 mmHg 58%
09:00 +20°C° 0 mm 5 mps 730 mmHg 57%
10:00 +21°C° 0 mm 5 mps 731 mmHg 56%
11:00 +21°C° 0 mm 5 mps 731 mmHg 55%
12:00 +22°C° 0.1 mm 5 mps 731 mmHg 57%
13:00 +22°C° 0.1 mm 5 mps 731 mmHg 59%
14:00 +22°C° 0.1 mm 5 mps 732 mmHg 61%
15:00 +22°C° 0.2 mm 5 mps 732 mmHg 63%
16:00 +22°C° 0.2 mm 5 mps 732 mmHg 66%
17:00 +22°C° 0.2 mm 4 mps 732 mmHg 68%
18:00 +20°C° 0.1 mm 3 mps 732 mmHg 75%
19:00 +19°C° 0.1 mm 3 mps 733 mmHg 82%
20:00 +17°C° 0.1 mm 2 mps 733 mmHg 89%
21:00 +16°C° 0 mm 2 mps 733 mmHg 91%
22:00 +16°C° 0 mm 2 mps 733 mmHg 92%
23:00 +15°C° 0 mm 2 mps 734 mmHg 93%

Tomorrow, 1 August, Sunday

Time Temperature Precipitation Wind Pressure Humidity
00:00 +15°C° 0 mm 2 mps 734 mmHg 93%
01:00 +15°C° 0 mm 2 mps 734 mmHg 92%
02:00 +15°C° 0 mm 2 mps 734 mmHg 92%
03:00 +15°C° 0 mm 2 mps 734 mmHg 91%
04:00 +15°C° 0 mm 2 mps 734 mmHg 90%
05:00 +15°C° 0 mm 2 mps 734 mmHg 88%
06:00 +16°C° 0.3 mm 2 mps 734 mmHg 89%
07:00 +16°C° 0.3 mm 3 mps 734 mmHg 90%
08:00 +17°C° 0.3 mm 3 mps 734 mmHg 91%
09:00 +17°C° 0.5 mm 3 mps 734 mmHg 91%
10:00 +18°C° 0.5 mm 3 mps 734 mmHg 91%
11:00 +18°C° 0.5 mm 3 mps 734 mmHg 92%
12:00 +19°C° 0.2 mm 3 mps 734 mmHg 88%
13:00 +20°C° 0.2 mm 4 mps 734 mmHg 84%
14:00 +22°C° 0.2 mm 4 mps 734 mmHg 80%
15:00 +23°C° 0.1 mm 4 mps 734 mmHg 73%
16:00 +25°C° 0.1 mm 3 mps 734 mmHg 66%
17:00 +26°C° 0.1 mm 3 mps 733 mmHg 59%
18:00 +24°C° 0 mm 3 mps 733 mmHg 64%
19:00 +21°C° 0 mm 2 mps 734 mmHg 69%
20:00 +19°C° 0 mm 2 mps 734 mmHg 74%
21:00 +18°C° 0 mm 2 mps 734 mmHg 74%
22:00 +18°C° 0 mm 2 mps 734 mmHg 74%
23:00 +17°C° 0 mm 2 mps 734 mmHg 74%

Day after tomorrow, 2 August, Monday

Time Temperature Precipitation Wind Pressure Humidity
00:00 +17°C° 0 mm 2 mps 734 mmHg 75%
01:00 +17°C° 0 mm 2 mps 735 mmHg 76%
02:00 +16°C° 0 mm 1 mps 735 mmHg 78%
03:00 +16°C° 0 mm 1 mps 735 mmHg 77%
04:00 +18°C° 0 mm 1 mps 734 mmHg 76%
05:00 +18°C° 0 mm 1 mps 734 mmHg 76%
06:00 +20°C° 0 mm 1 mps 734 mmHg 69%
07:00 +20°C° 0 mm 2 mps 734 mmHg 63%
08:00 +23°C° 0 mm 2 mps 734 mmHg 57%
09:00 +24°C° 0.1 mm 2 mps 733 mmHg 57%
10:00 +25°C° 0.1 mm 2 mps 733 mmHg 57%
11:00 +26°C° 0.1 mm 3 mps 733 mmHg 56%
12:00 +24°C° 1.9 mm 2 mps 732 mmHg 69%
13:00 +21°C° 1.9 mm 2 mps 731 mmHg 82%
14:00 +19°C° 1.9 mm 2 mps 731 mmHg 95%
15:00 +19°C° 1.9 mm 2 mps 730 mmHg 94%
16:00 +20°C° 1.9 mm 2 mps 730 mmHg 92%
17:00 +21°C° 1.9 mm 3 mps 729 mmHg 91%
18:00 +20°C° 0.3 mm 3 mps 729 mmHg 93%
19:00 +19°C° 0.3 mm 2 mps 729 mmHg 95%
20:00 +18°C° 0.3 mm 2 mps 729 mmHg 97%
21:00 +18°C° 0 mm 2 mps 729 mmHg 97%
22:00 +17°C° 0 mm 2 mps 729 mmHg 97%
23:00 +16°C° 0 mm 2 mps 730 mmHg 97%

3 August, Tuesday

Time Temperature Precipitation Wind Pressure Humidity
00:00 +16°C° 0 mm 2 mps 730 mmHg 97%
01:00 +16°C° 0 mm 2 mps 730 mmHg 97%
02:00 +15°C° 0 mm 2 mps 730 mmHg 97%
03:00 +15°C° 0 mm 2 mps 730 mmHg 97%
04:00 +15°C° 0 mm 2 mps 730 mmHg 97%
05:00 +15°C° 0 mm 2 mps 731 mmHg 97%
06:00 +15°C° 0.4 mm 2 mps 731 mmHg 97%
07:00 +15°C° 0.4 mm 2 mps 731 mmHg 97%
08:00 +15°C° 0.4 mm 2 mps 732 mmHg 97%
09:00 +16°C° 0.2 mm 3 mps 732 mmHg 91%
10:00 +17°C° 0.2 mm 3 mps 733 mmHg 84%
11:00 +18°C° 0.2 mm 3 mps 733 mmHg 78%
12:00 +19°C° 0.2 mm 3 mps 733 mmHg 70%
13:00 +20°C° 0.2 mm 3 mps 733 mmHg 62%
14:00 +22°C° 0.2 mm 4 mps 733 mmHg 54%
15:00 +21°C° 0.3 mm 3 mps 733 mmHg 61%
16:00 +20°C° 0.3 mm 3 mps 734 mmHg 69%
17:00 +19°C° 0.3 mm 3 mps 734 mmHg 76%
18:00 +17°C° 0.1 mm 3 mps 734 mmHg 79%
19:00 +16°C° 0.1 mm 2 mps 735 mmHg 83%
20:00 +15°C° 0.1 mm 2 mps 735 mmHg 86%
21:00 +14°C° 0 mm 2 mps 735 mmHg 88%
22:00 +13°C° 0 mm 2 mps 736 mmHg 91%
23:00 +13°C° 0 mm 2 mps 736 mmHg 94%

4 August, Wednesday

Time Temperature Precipitation Wind Pressure Humidity
00:00 +12°C° 0 mm 2 mps 737 mmHg 95%
01:00 +12°C° 0 mm 1 mps 737 mmHg 95%
02:00 +12°C° 0 mm 1 mps 737 mmHg 96%
03:00 +11°C° 0 mm 1 mps 738 mmHg 96%
04:00 +11°C° 0 mm 1 mps 738 mmHg 96%
05:00 +11°C° 0 mm 1 mps 738 mmHg 96%
06:00 +13°C° 0 mm 2 mps 739 mmHg 86%
07:00 +15°C° 0 mm 2 mps 739 mmHg 77%
08:00 +17°C° 0 mm 2 mps 740 mmHg 67%
09:00 +18°C° 0 mm 2 mps 740 mmHg 59%
10:00 +19°C° 0 mm 2 mps 740 mmHg 50%
11:00 +21°C° 0 mm 2 mps 740 mmHg 42%
12:00 +21°C° 0 mm 2 mps 740 mmHg 39%
13:00 +23°C° 0 mm 2 mps 741 mmHg 37%
14:00 +23°C° 0 mm 2 mps 741 mmHg 34%
15:00 +23°C° 0 mm 2 mps 741 mmHg 38%
16:00 +23°C° 0 mm 2 mps 741 mmHg 41%
17:00 +21°C° 0 mm 2 mps 741 mmHg 44%
18:00 +20°C° 0 mm 1 mps 741 mmHg 51%
19:00 +18°C° 0 mm 1 mps 741 mmHg 58%
20:00 +15°C° 0 mm 1 mps 741 mmHg 64%
21:00 +14°C° 0 mm 1 mps 741 mmHg 66%
22:00 +13°C° 0 mm 1 mps 742 mmHg 67%
23:00 +13°C° 0 mm 1 mps 742 mmHg 68%

5 August, Thursday

Time Temperature Precipitation Wind Pressure Humidity
00:00 +12°C° 0 mm 1 mps 742 mmHg 68%
01:00 +12°C° 0 mm 1 mps 742 mmHg 68%
02:00 +12°C° 0 mm 1 mps 742 mmHg 68%
03:00 +12°C° 0 mm 1 mps 742 mmHg 69%
04:00 +12°C° 0 mm 1 mps 742 mmHg 70%
05:00 +12°C° 0 mm 1 mps 742 mmHg 72%
06:00 +14°C° 0 mm 1 mps 742 mmHg 64%
07:00 +17°C° 0 mm 2 mps 742 mmHg 57%
08:00 +19°C° 0 mm 2 mps 742 mmHg 49%
09:00 +21°C° 0 mm 2 mps 742 mmHg 45%
10:00 +22°C° 0 mm 3 mps 742 mmHg 41%
11:00 +24°C° 0 mm 3 mps 742 mmHg 36%
12:00 +24°C° 0 mm 3 mps 742 mmHg 36%
13:00 +25°C° 0 mm 3 mps 741 mmHg 36%
14:00 +25°C° 0 mm 3 mps 741 mmHg 36%
15:00 +24°C° 0 mm 3 mps 741 mmHg 42%
16:00 +22°C° 0 mm 3 mps 741 mmHg 49%
17:00 +20°C° 0 mm 3 mps 740 mmHg 56%
18:00 +20°C° 0 mm 3 mps 740 mmHg 56%
19:00 +19°C° 0 mm 4 mps 740 mmHg 57%
20:00 +18°C° 0 mm 4 mps 740 mmHg 58%
21:00 +17°C° 0.1 mm 3 mps 740 mmHg 64%
22:00 +16°C° 0.1 mm 3 mps 740 mmHg 69%
23:00 +14°C° 0.1 mm 3 mps 740 mmHg 75%
Show more

We Need Your Consent

Meteoprog and our Service Providers may store and access personal data such as cookies, device identifiers or other similar technologies on your device and process such data to personalise content and ads, as well as provide social media features and to analyse the traffic.

  • Store and/or access information on your device

    Cookies, device identifiers or other information can be stored or accessed on your device for the purposes indicated above.

  • Personalised ads and content, ad and content measurement, audience insights, and products development

    Ads and content can be personalised based on a profile. More data can be added to better personalise ads and content. Ad and content performance can be measured. Insights about the audience who saw the ads and content can be derived. Such data can be used to develop or improve user’s experience, systems and software.

By clicking ‘I Agree’ you will allow the use of indicated cookies, device identifiers, web beacons or other similar technologies. Your settings can be changed in the browser on your device.

For certain purposes, legitimate interests may be relied on, rather than consent. You can read more about this in our Privacy and Cookie Policy.